Tracking 34406 objects as of 15-Jun-2026
HD Live streaming from Space Station
objects crossing your sky now

THORAD AGENA D DEB

Track THORAD AGENA D DEB now!
10-day predictions


NORAD ID: 42537
Int'l Code: 1970-025ST
Perigee: 954.5 km
Apogee: 964.6 km
Inclination: 100.0 °
Period: 104.1 minutes
Semi major axis: 7330 km
RCS: Unknown
Launch date: April 8, 1970
Source: United States (US)
Launch site: AIR FORCE WESTERN TEST RANGE (AFWTR)

Note: This is SATELLITE DEBRIS
Your satellite tracking list
Your tracking list is empty




NASA's NSSDC Master Catalog

Two Line Element Set (TLE):
1 42537U 70025ST  26149.42977461  .00000924  00000-0  88725-3 0  9995
2 42537 100.0196  48.9970 0006904 301.2708  58.7767 13.83246469 50053
Source of the keplerian elements: AFSPC